Location: Château-Garnier
(44.0865°N, 6.4804°E)
Time: 00:50:53
(UTC+00:00)

Daily predictions for brighter satellites

Satellite Brightness Start Highest point End
(mag) Time Altitude Azimuth Time Altitude Azimuth Time Altitude Azimuth
ACS3 Solar Sail 4.1 02:02:10 10° NE 02:03:45 17° NE 02:03:45 17° NE
ADEOS Rocket 4.3 02:34:44 10° NNE 02:38:45 39° NE 02:38:45 39° NE
Cosmos 2219 Rocket 3.8 02:55:06 29° NE 02:55:06 29° NE 02:57:54 10° NNE
BREEZE-M DEB (TANK) 4.5 02:53:28 74° NNW 02:54:09 78° NNE 03:19:20 10° ESE
USA 267 3.3 03:14:27 10° NE 03:20:18 68° N 03:20:18 68° N
Cosmos 2278 Rocket 4.1 03:29:48 12° N 03:34:07 26° NE 03:38:48 10° ESE
Cosmos 2333 Rocket 4.0 03:39:30 20° N 03:39:30 20° N 03:41:32 10° N
Cosmos 921 Rocket 4.3 03:40:14 36° SE 03:40:14 36° SE 03:43:01 10° SSE
COSMOS 2455 4.0 03:45:06 30° N 03:45:06 30° N 03:48:45 10° NNE
Cosmos 1153 Rocket 4.3 03:41:08 10° N 03:47:21 89° W 03:53:36 10° S
Cosmos 1939 Rocket 4.0 03:44:56 10° NNE 03:48:35 39° E 03:48:49 39° ESE
ACS3 Solar Sail 2.8 03:44:41 10° N 03:47:53 31° NNW 03:47:53 31° NNW
BlueWalker 3 3.4 03:53:51 33° ENE 03:53:51 33° ENE 03:56:14 10° E
USA 234 3.1 03:50:16 10° SE 03:56:50 83° SW 03:58:53 48° WNW
Cosmos 2360 Rocket 3.7 03:59:08 23° NNW 03:59:08 23° NNW 04:01:51 10° N
Cosmos 2322 Rocket 3.8 03:59:31 21° NNW 03:59:31 21° NNW 04:01:57 10° N
Gbstr 26 Del rocket 3.2 03:59:16 79° SSW 03:59:31 83° SE 04:05:14 10° ENE
SL-16 R/B 4.3 04:06:02 13° NNW 04:06:02 13° NNW 04:07:09 10° N
Cosmos 44 Rocket 3.7 04:05:02 36° NNW 04:07:00 64° NE 04:12:07 10° SE
Meteor 2-14 Rocket 4.3 04:04:22 10° SSW 04:10:29 75° W 04:16:36 10° N
Cosmos 1943 Rocket 3.0 04:06:17 11° NNW 04:11:21 48° ENE 04:16:39 10° SE
NOSS 2-1 (C) 4.1 04:14:58 34° NNE 04:14:58 34° NNE 04:16:47 10° NE
ARGOS 3.3 04:11:00 10° N 04:16:13 49° WNW 04:16:17 49° WNW
PAYLOAD A 4.0 04:11:44 10° N 04:17:06 65° WNW 04:20:30 22° SSW
Cosmos 1908 Rocket 4.0 04:13:13 10° N 04:17:38 62° E 04:21:59 10° SSE
NOSS 2-1 (D) 4.2 04:19:05 31° NNE 04:19:05 31° NNE 04:20:48 10° NNE
Cosmos 1140 Rocket 3.4 04:15:56 20° NNW 04:19:32 84° ENE 04:24:39 10° SSE
Timation 2 Rocket 4.2 04:14:48 10° NNW 04:21:26 76° ENE 04:27:48 10° SSE
CZ-2C R/B 2.6 04:16:45 10° N 04:21:32 48° WNW 04:21:32 48° WNW
Cosmos 1809 Rocket 4.4 04:16:27 10° SSW 04:22:27 58° WNW 04:28:28 10° N
ADEOS Rocket 4.1 04:21:00 10° N 04:25:40 28° NW 04:25:40 28° NW
NOSS 3-1 (C) 2.9 04:27:24 45° W 04:28:34 58° NW 04:34:06 10° NNE
Iridium 4 Rocket 3.4 04:28:39 10° N 04:32:57 62° E 04:37:02 10° SSE
SJ 16-02 4.0 04:30:37 10° NNE 04:33:20 16° ENE 04:36:02 10° E
Cosmos 2100 Rocket 3.9 04:27:24 10° NNW 04:33:26 63° W 04:39:31 10° S
Orbus 7S? 4.3 04:27:08 10° SW 04:34:28 62° SE 04:37:58 10° NE
Cosmos 2219 Rocket 3.2 04:36:50 26° NW 04:36:50 26° NW 04:41:20 10° N
IRS-1D 3.4 04:36:41 10° NNE 04:41:41 88° ESE 04:46:37 10° SSW
NOSS 0 Rocket 3.9 04:36:32 10° SSW 04:42:40 88° WNW 04:48:51 10° NNE
TIMED 4.3 04:40:18 18° NNW 04:43:29 81° WSW 04:47:44 10° SSE
COSMOS 2428 2.8 04:41:30 15° SW 04:46:11 53° WNW 04:51:47 10° NNE
USA 59 Rocket 0.6 04:50:47 24° NNW 04:50:47 24° NNW 04:52:41 10° NNE
Cosmos 2322 4.1 04:50:01 19° WSW 04:53:44 41° WNW 04:59:06 10° NNE
Cosmos 1459 Rocket 4.2 04:48:32 10° NNW 04:54:37 49° W 05:00:39 10° SSW
Cosmos 1864 Rocket 4.5 04:49:23 10° NNW 04:55:35 64° W 05:01:48 10° S
COSMO-SKYMED 1 2.5 04:53:19 10° SSE 04:57:25 80° ENE 05:01:34 10° N
FengYun 1-2 T 4.3 04:52:46 10° N 04:58:11 55° WNW 05:03:36 10° SW
SKYMED 2 3.5 04:54:24 10° S 04:58:43 71° WSW 05:03:05 10° NNW
Cosmos 407 Rocket 3.4 04:56:21 10° NNW 05:01:29 82° WSW 05:06:34 10° SSE
USA 267 4.1 04:57:38 10° NE 05:03:24 35° NNW 05:07:38 17° WNW
Cosmos 1484 Rocket 3.6 05:00:45 10° NNE 05:04:12 49° E 05:07:38 10° S
Cosmos 1725 Rocket 4.0 04:58:55 10° NNW 05:05:07 60° W 05:11:17 10° S
Cosmos 1980 3.6 05:00:15 10° SSW 05:05:53 80° WNW 05:11:36 10° NNE
NOSS 3-1 (A) 2.9 05:08:04 10° SW 05:12:42 64° NW 05:18:16 10° NNE
Cosmos 1802 Rocket 4.3 05:06:55 10° NNW 05:12:57 46° W 05:18:53 10° SSW
Cosmos 2233 Rocket 4.0 05:10:05 10° NNW 05:16:23 71° W 05:22:35 10° S
Cosmos 1703 Rocket 4.2 05:12:35 10° SW 05:16:29 32° WNW 05:20:27 10° N
Cosmos 2278 Rocket 2.3 05:12:59 10° NNW 05:18:30 54° WSW 05:23:59 10° S
NOSS 2-1 (E) 4.3 05:18:52 18° WNW 05:19:55 20° NW 05:22:21 10° N
Cosmos 2251 Rocket 3.7 05:14:58 10° NNW 05:20:22 82° ENE 05:25:43 10° SSE
CZ-3 R/B 3.7 05:14:24 10° SW 05:22:02 20° S 05:26:11 10° SE
Cosmos 2237 Rocket 2.2 05:16:35 10° SW 05:22:12 64° WNW 05:27:51 10° NNE
Cosmos 1939 Rocket 4.3 05:19:44 10° NNW 05:22:14 17° WNW 05:23:42 14° W
USA-17 4.4 05:22:10 10° NW 05:25:16 78° NE 05:28:45 10° SE
Cosmos 2292 Rocket 4.1 05:23:05 10° SW 05:26:59 39° WNW 05:31:55 10° N
IGS 5A 4.0 05:23:14 10° NNE 05:27:13 61° E 05:31:11 10° S
BlueWalker 3 2.8 05:27:40 14° WNW 05:30:14 30° SW 05:33:25 10° SSE
USA 276 3.3 05:29:39 14° W 05:31:13 22° SW 05:33:28 10° SSE
Meteor 1-24 Rocket 4.4 05:26:38 10° SW 05:31:41 31° WNW 05:36:37 10° N
Helios 1A Rocket 3.5 05:29:10 10° SSW 05:32:00 25° W 05:34:51 10° NW
Cosmos 2242 Rocket 3.7 05:28:32 10° S 05:32:54 83° E 05:37:19 10° N
Cosmos 2369 Rocket 3.8 05:31:09 10° N 05:36:14 32° NE 05:41:18 10° ESE
Cosmos 1624 Rocket 4.2 05:33:20 10° SSW 05:38:30 79° ESE 05:43:42 10° NNE
Cosmos 1782 Rocket 4.2 05:35:23 10° NNW 05:39:22 34° W 05:43:18 10° SSW
USA 234 4.5 05:35:25 10° S 05:40:26 23° SW 05:45:29 10° WNW
Cosmos 1420 Rocket 4.1 05:39:08 10° SW 05:44:17 56° WNW 05:49:31 10° NNE
Gbstr 26 Del rocket 4.2 05:41:36 10° W 05:46:33 43° N 05:52:35 10° ENE
CENTAUR R/B 4.2 05:42:02 10° NNW 05:49:51 47° NE 05:58:45 10° ESE
ARIANE 5 R/B 3.6 05:46:57 10° NNE 05:51:54 52° E 05:56:51 10° S
